GW2644 Weather Reports


Display with metric or nautical units.
time (UTC)temp
F
wind
direction
speed
MPH
gust
MPH
rain 1hr
in
rain 24hr
in
rain mn
in
humidity
%
barometer
mb
20260901054509 70 270 0.0 2.0 0.00 0.00 0.00 86 1018.1
20260901054005 70 270 0.0 1.0 0.00 0.00 0.00 85 1018.0
20260901053501 70 255 0.0 1.0 0.00 0.00 0.00 85 1018.1
20260901052956 70 270 1.0 2.0 0.00 0.00 0.00 85 1018.2
20260901052451 70 261 0.0 2.0 0.00 0.00 0.00 85 1018.0
20260901051944 70 253 0.0 2.0 0.00 0.00 0.00 85 1018.1
20260901051440 70 270 0.0 1.0 0.00 0.00 0.00 85 1018.0
20260901050939 70 239 0.0 2.0 0.00 0.00 0.00 85 1017.8
20260901050435 70 278 1.0 2.0 0.00 0.00 0.00 85 1017.8
20260901045934 70 246 0.0 2.0 0.00 0.00 0.00 84 1017.7
20260901045429 70 257 0.0 2.0 0.00 0.00 0.00 84 1017.5
20260901044919 70 254 0.0 2.0 0.00 0.00 0.00 84 1017.7
20260901044415 70 277 0.0 2.0 0.00 0.00 0.00 84 1017.8
20260901043911 71 297 0.0 3.0 0.00 0.00 0.00 84 1017.8
20260901043407 71 311 2.0 2.0 0.00 0.00 0.00 83 1017.5
20260901042901 71 270 0.0 2.0 0.00 0.00 0.00 83 1017.5
20260901042401 71 249 1.0 3.0 0.00 0.00 0.00 83 1017.8
20260901041856 71 279 0.0 1.0 0.00 0.00 0.00 83 1017.6
20260901041351 71 270 0.0 2.0 0.00 0.00 0.00 83 1017.6
20260901040851 71 282 2.0 2.0 0.00 0.00 0.00 83 1017.5
20260901040351 71 270 0.0 2.0 0.00 0.00 0.00 82 1017.2
20260901035850 71 285 0.0 0.0 0.00 0.00 0.00 82 1017.0
20260901035349 72 282 2.0 3.0 0.00 0.00 0.00 82 1017.0
20260901034847 72 270 1.0 1.0 0.00 0.00 0.00 81 1017.1
20260901034343 72 270 0.0 2.0 0.00 0.00 0.00 81 1016.9
20260901033842 72 251 0.0 3.0 0.00 0.00 0.00 81 1016.9
20260901033341 72 258 0.0 3.0 0.00 0.00 0.00 80 1017.0
20260901032840 72 255 0.0 2.0 0.00 0.00 0.00 80 1016.7
20260901032335 72 278 0.0 3.0 0.00 0.00 0.00 79 1016.7
20260901031830 73 337 1.0 2.0 0.00 0.00 0.00 78 1016.8
20260901031326 73 279 0.0 3.0 0.00 0.00 0.00 78 1016.5
20260901030825 73 229 2.0 4.0 0.00 0.00 0.00 78 1016.3
20260901030320 73 231 0.0 3.0 0.00 0.00 0.00 78 1016.3
20260901025814 73 270 2.0 3.0 0.00 0.00 0.00 77 1016.6
20260901025309 73 306 1.0 3.0 0.00 0.00 0.00 76 1016.4
20260901024804 73 295 2.0 4.0 0.00 0.00 0.00 76 1016.6
20260901024303 73 280 2.0 3.0 0.00 0.00 0.00 76 1016.2
20260901023801 73 353 0.0 5.0 0.00 0.00 0.00 76 1016.4
20260901023256 74 339 0.0 2.0 0.00 0.00 0.00 74 1016.2
20260901022752 74 341 0.0 4.0 0.00 0.00 0.00 74 1016.1
20260901022248 75 215 1.0 4.0 0.00 0.00 0.00 73 1016.3
20260901021742 74 344 3.0 5.0 0.00 0.00 0.00 71 1016.2
20260901021238 75 259 3.0 5.0 0.00 0.00 0.00 71 1016.3
20260901020733 76 54 0.0 3.0 0.00 0.00 0.00 70 1016.3
20260901020228 76 270 0.0 4.0 0.00 0.00 0.00 70 1016.4
20260901015723 76 270 0.0 5.0 0.00 0.00 0.00 70 1016.1
20260901015219 77 337 2.0 4.0 0.00 0.00 0.00 69 1016.2
20260901014719 77 341 0.0 4.0 0.00 0.00 0.00 66 1016.1
20260901014215 78 265 0.0 4.0 0.00 0.00 0.00 63 1016.1
20260901013710 79 278 0.0 4.0 0.00 0.00 0.00 64 1016.1
20260901013206 79 229 0.0 4.0 0.00 0.00 0.00 63 1016.1
20260901012701 80 295 2.0 4.0 0.00 0.00 0.00 61 1015.9
20260901012156 80 233 2.0 5.0 0.00 0.00 0.00 61 1016.2
20260901011651 81 254 1.0 5.0 0.00 0.00 0.00 59 1015.9
20260901011150 82 255 0.0 5.0 0.00 0.00 0.00 60 1015.8
20260901010639 82 256 3.0 4.0 0.00 0.00 0.00 60 1015.9
20260901010138 82 246 4.0 5.0 0.00 0.00 0.00 60 1016.0
20260901005632 83 240 1.0 5.0 0.00 0.00 0.00 59 1016.1
20260901005128 85 248 2.0 4.0 0.00 0.00 0.00 55 1016.1
20260901004627 84 209 0.0 2.0 0.00 0.00 0.00 50 1015.8
20260901004122 83 192 1.0 3.0 0.00 0.00 0.00 52 1016.2
20260901003617 83 214 0.0 3.0 0.00 0.00 0.00 51 1016.1
20260901003115 83 270 0.0 4.0 0.00 0.00 0.00 52 1016.0
20260901002610 82 274 2.0 4.0 0.00 0.00 0.00 55 1016.0
20260901002105 82 225 3.0 5.0 0.00 0.00 0.00 54 1016.2
20260901001559 82 287 3.0 3.0 0.00 0.00 0.00 54 1016.3
20260901001054 82 221 4.0 4.0 0.00 0.00 0.00 55 1016.1
20260901000549 82 226 4.0 5.0 0.00 0.00 0.00 55 1016.4
20260901000045 82 248 0.0 3.0 0.00 0.00 0.00 57 1016.2
20260831235538 82 254 2.0 6.0 0.00 0.00 0.00 55 1016.3
20260831235034 83 192 2.0 4.0 0.00 0.00 0.00 54 1016.2
20260831234528 82 187 3.0 4.0 0.00 0.00 0.00 57 1016.2
20260831234025 83 221 2.0 4.0 0.00 0.00 0.00 52 1016.2
20260831233520 83 221 0.0 3.0 0.00 0.00 0.00 52 1016.3
20260831233015 83 38 0.0 5.0 0.00 0.00 0.00 51 1016.2
20260831232510 84 203 0.0 3.0 0.00 0.00 0.00 47 1016.0
20260831232006 83 216 2.0 4.0 0.00 0.00 0.00 50 1016.2
20260831231503 81 206 0.0 7.0 0.00 0.00 0.00 55 1016.2
20260831230958 83 213 2.0 3.0 0.00 0.00 0.00 52 1016.1
20260831230453 84 232 0.0 4.0 0.00 0.00 0.00 54 1016.3
20260831225952 83 96 0.0 2.0 0.00 0.00 0.00 55 1016.2
20260831225448 82 263 0.0 2.0 0.00 0.00 0.00 54 1016.1
20260831224943 83 237 0.0 4.0 0.00 0.00 0.00 55 1016.5
20260831224442 84 222 3.0 4.0 0.00 0.00 0.00 54 1016.4
20260831223937 84 216 2.0 3.0 0.00 0.00 0.00 55 1016.4
20260831223433 84 29 0.0 3.0 0.00 0.00 0.00 55 1016.4
20260831222930 84 238 0.0 3.0 0.00 0.00 0.00 56 1016.5
20260831222425 83 228 6.0 6.0 0.00 0.00 0.00 56 1016.7
20260831221920 84 220 0.0 3.0 0.00 0.00 0.00 53 1016.5
20260831221416 86 254 2.0 5.0 0.00 0.00 0.00 54 1016.7
20260831220911 84 120 2.0 6.0 0.00 0.00 0.00 55 1016.7
20260831220406 83 270 2.0 6.0 0.00 0.00 0.00 55 1016.7
20260831215901 83 191 0.0 4.0 0.00 0.00 0.00 56 1016.7
20260831215357 84 201 0.0 5.0 0.00 0.00 0.00 56 1016.8
20260831214853 83 270 1.0 2.0 0.00 0.00 0.00 57 1016.8
20260831214345 83 0 0.0 3.0 0.00 0.00 0.00 57 1016.7
20260831213845 83 231 0.0 3.0 0.00 0.00 0.00 58 1017.0
20260831213342 83 220 3.0 4.0 0.00 0.00 0.00 59 1017.1
20260831212837 82 237 0.0 3.0 0.00 0.00 0.00 60 1017.2
20260831212333 82 282 0.0 3.0 0.00 0.00 0.00 59 1017.1
20260831211832 82 90 0.0 3.0 0.00 0.00 0.00 61 1017.1
20260831211327 82 0 0.0 5.0 0.00 0.00 0.00 61 1017.2
20260831210826 82 212 2.0 4.0 0.00 0.00 0.00 61 1017.3
20260831210323 84 279 3.0 5.0 0.00 0.00 0.00 61 1017.3
20260831205818 82 243 3.0 3.0 0.00 0.00 0.00 61 1017.3
20260831205314 84 203 1.0 5.0 0.00 0.00 0.00 61 1016.8
20260831204813 81 83 1.0 4.0 0.00 0.00 0.00 63 1017.2
20260831204312 82 187 1.0 4.0 0.00 0.00 0.00 62 1017.2
20260831203812 83 187 1.0 3.0 0.00 0.00 0.00 62 1017.2
20260831203302 82 206 1.0 3.0 0.00 0.00 0.00 62 1017.5
20260831202759 81 234 1.0 3.0 0.00 0.00 0.00 64 1017.2
20260831202254 82 233 2.0 5.0 0.00 0.00 0.00 65 1017.5
20260831201748 82 190 0.0 3.0 0.00 0.00 0.00 63 1017.1
20260831201247 82 249 1.0 2.0 0.00 0.00 0.00 63 1017.5
20260831200743 82 209 1.0 5.0 0.00 0.00 0.00 65 1017.2
20260831200238 81 240 3.0 8.0 0.00 0.00 0.00 65 1017.2
20260831195734 83 252 3.0 6.0 0.00 0.00 0.00 64 1017.3
20260831195229 82 270 1.0 5.0 0.00 0.00 0.00 65 1017.4
20260831194723 81 200 0.0 6.0 0.00 0.00 0.00 65 1017.3
20260831194219 81 198 3.0 5.0 0.00 0.00 0.00 65 1017.3
20260831193713 83 180 0.0 4.0 0.00 0.00 0.00 63 1017.4
20260831193209 83 216 0.0 2.0 0.00 0.00 0.00 61 1017.3
20260831192704 80 270 0.0 3.0 0.00 0.00 0.00 61 1017.4
20260831192159 81 261 0.0 5.0 0.00 0.00 0.00 63 1017.6
20260831191655 79 228 0.0 2.0 0.00 0.00 0.00 63 1017.5
20260831191151 80 270 0.0 4.0 0.00 0.00 0.00 64 1017.7
20260831190645 81 165 0.0 4.0 0.00 0.00 0.00 64 1017.7
20260831190144 79 278 0.0 3.0 0.00 0.00 0.00 65 1017.6
20260831185640 80 15 2.0 4.0 0.00 0.00 0.00 66 1017.7
20260831185135 81 260 0.0 4.0 0.00 0.00 0.00 65 1017.6
20260831184629 80 20 0.0 2.0 0.00 0.00 0.00 64 1018.0
20260831184125 79 112 0.0 2.0 0.00 0.00 0.00 64 1017.6
20260831183619 80 261 0.0 2.0 0.00 0.00 0.00 63 1017.9
20260831183118 80 105 0.0 1.0 0.00 0.00 0.00 64 1017.8
20260831182617 77 270 0.0 3.0 0.00 0.00 0.00 66 1017.8
20260831182113 78 234 1.0 2.0 0.00 0.00 0.00 65 1017.8
20260831181608 80 97 0.0 1.0 0.00 0.00 0.00 64 1017.8
20260831181107 78 74 0.0 2.0 0.00 0.00 0.00 65 1018.0
20260831180602 77 240 2.0 2.0 0.00 0.00 0.00 65 1017.7
20260831180058 77 209 1.0 3.0 0.00 0.00 0.00 67 1017.8
20260831175547 77 270 0.0 2.0 0.00 0.00 0.00 65 1017.8
20260831175044 78 105 0.0 1.0 0.00 0.00 0.00 66 1017.8
20260831174538 78 106 0.0 2.0 0.00 0.00 0.00 66 1017.8
20260831174032 77 120 0.0 2.0 0.00 0.00 0.00 67 1017.8
20260831173530 77 96 0.0 3.0 0.00 0.00 0.00 69 1017.9
20260831173027 75 243 0.0 2.0 0.00 0.00 0.00 70 1018.0
20260831172522 75 282 0.0 3.0 0.00 0.00 0.00 72 1018.1
20260831172017 75 290 0.0 3.0 0.00 0.00 0.00 72 1017.9
20260831171513 75 164 0.0 2.0 0.00 0.00 0.00 70 1017.9
20260831171010 75 90 0.0 0.0 0.00 0.00 0.00 72 1017.9
20260831170505 75 106 0.0 2.0 0.00 0.00 0.00 73 1017.7
20260831170002 75 236 0.0 2.0 0.00 0.00 0.00 72 1017.8
20260831165457 75 99 0.0 2.0 0.00 0.00 0.00 73 1017.8
20260831164954 74 286 0.0 3.0 0.00 0.00 0.00 75 1017.8
20260831164450 74 255 2.0 3.0 0.00 0.00 0.00 77 1017.5
20260831163945 73 276 0.0 2.0 0.00 0.00 0.00 78 1017.7
20260831163440 75 281 2.0 2.0 0.00 0.00 0.00 78 1017.6
20260831162938 74 270 0.0 1.0 0.00 0.00 0.00 78 1017.5
20260831162435 75 243 0.0 1.0 0.00 0.00 0.00 78 1017.5
20260831161932 76 206 0.0 2.0 0.00 0.00 0.00 76 1017.7
20260831161424 76 259 2.0 2.0 0.00 0.00 0.00 75 1017.6
20260831160919 73 289 0.0 2.0 0.00 0.00 0.00 78 1017.7
20260831160413 74 286 0.0 1.0 0.00 0.00 0.00 80 1017.6
20260831155908 73 221 0.0 0.0 0.00 0.00 0.00 81 1017.6
20260831155403 75 209 0.0 1.0 0.00 0.00 0.00 81 1017.6
20260831154858 74 264 0.0 1.0 0.00 0.00 0.00 82 1017.6
20260831154355 73 249 0.0 0.0 0.00 0.00 0.00 84 1017.6
20260831153852 73 270 0.0 0.0 0.00 0.00 0.00 86 1017.7
20260831153349 72 261 0.0 0.0 0.00 0.00 0.00 86 1017.7
20260831152845 72 331 0.0 0.0 0.00 0.00 0.00 87 1017.6
20260831152340 72 270 0.0 1.0 0.00 0.00 0.00 88 1017.6
20260831151835 71 261 0.0 0.0 0.00 0.00 0.00 89 1017.6
20260831151334 71 234 0.0 1.0 0.00 0.00 0.00 90 1017.5
20260831150829 72 234 0.0 0.0 0.00 0.00 0.00 91 1017.4
20260831150325 71 255 0.0 1.0 0.00 0.00 0.00 92 1017.5
20260831145823 70 270 0.0 0.0 0.00 0.00 0.00 92 1017.3
20260831145320 70 255 0.0 1.0 0.00 0.00 0.00 94 1017.3
20260831144816 70 270 0.0 0.0 0.00 0.00 0.00 95 1017.3
20260831144312 70 279 0.0 0.0 0.00 0.00 0.00 95 1017.3
20260831143811 69 279 0.0 0.0 0.00 0.00 0.00 95 1017.3
20260831143306 69 279 0.0 0.0 0.00 0.00 0.00 95 1017.2
20260831142756 69 279 0.0 0.0 0.00 0.00 0.00 95 1017.0
20260831142252 69 279 0.0 0.0 0.00 0.00 0.00 95 1016.9
20260831141751 69 279 0.0 0.0 0.00 0.00 0.00 95 1017.1
20260831141246 69 279 0.0 0.0 0.00 0.00 0.00 95 1017.1
20260831140740 68 279 0.0 0.0 0.00 0.00 0.00 95 1017.1
20260831140235 68 279 0.0 0.0 0.00 0.00 0.00 95 1016.8
20260831135732 68 279 0.0 0.0 0.00 0.00 0.00 95 1016.7
20260831135228 68 279 0.0 0.0 0.00 0.00 0.00 95 1016.5
20260831134724 69 279 0.0 0.0 0.00 0.00 0.00 95 1016.6
20260831134221 68 279 0.0 0.0 0.00 0.00 0.00 94 1016.4
20260831133719 68 279 0.0 0.0 0.00 0.00 0.00 94 1016.4
20260831133214 68 279 0.0 0.0 0.00 0.00 0.00 94 1016.4
20260831132709 68 279 0.0 0.0 0.00 0.00 0.00 94 1016.5
20260831132209 68 279 0.0 0.0 0.00 0.00 0.00 94 1016.3
20260831131708 68 279 0.0 0.0 0.00 0.00 0.00 94 1016.2
20260831131205 68 279 0.0 0.0 0.00 0.00 0.00 94 1016.3
20260831130700 68 279 0.0 0.0 0.00 0.00 0.00 94 1016.3
20260831130155 68 279 0.0 0.0 0.00 0.00 0.00 94 1016.1
20260831125653 68 279 0.0 0.0 0.00 0.00 0.00 94 1016.3
20260831125149 69 279 0.0 0.0 0.00 0.00 0.00 94 1016.2
20260831124645 69 279 0.0 0.0 0.00 0.00 0.00 94 1016.3
20260831124142 69 279 0.0 0.0 0.00 0.00 0.00 94 1016.0
20260831123641 69 279 0.0 0.0 0.00 0.00 0.00 94 1016.1
20260831123140 69 279 0.0 0.0 0.00 0.00 0.00 94 1016.2
20260831122639 69 279 0.0 0.0 0.00 0.00 0.00 93 1016.0
20260831122131 69 279 0.0 0.0 0.00 0.00 0.00 93 1016.2
20260831121630 69 279 0.0 0.0 0.00 0.00 0.00 93 1016.1
20260831121126 69 270 0.0 0.0 0.00 0.00 0.00 93 1016.0
20260831120621 69 270 0.0 0.0 0.00 0.00 0.00 93 1016.2
20260831120116 70 270 0.0 0.0 0.00 0.00 0.00 93 1016.1
20260831115612 70 270 0.0 0.0 0.00 0.00 0.00 93 1016.0
20260831115107 70 270 0.0 0.0 0.00 0.00 0.00 93 1016.3
20260831114606 69 270 0.0 0.0 0.00 0.00 0.00 92 1016.1
20260831114101 70 270 0.0 0.0 0.00 0.00 0.00 92 1016.2
20260831113600 70 270 0.0 0.0 0.00 0.00 0.00 92 1016.1
20260831113056 69 270 0.0 0.0 0.00 0.00 0.00 92 1016.0
20260831112555 69 270 0.0 0.0 0.00 0.00 0.00 91 1016.0
20260831112050 69 270 0.0 0.0 0.00 0.00 0.00 91 1016.3
20260831111547 70 270 0.0 0.0 0.00 0.00 0.00 91 1016.2
20260831111042 70 270 0.0 0.0 0.00 0.00 0.00 91 1016.1
20260831110537 70 270 0.0 0.0 0.00 0.00 0.00 91 1016.2
20260831110032 70 270 0.0 0.0 0.00 0.00 0.00 91 1016.1
20260831105531 70 270 0.0 0.0 0.00 0.00 0.00 90 1016.1
20260831105026 70 270 0.0 0.0 0.00 0.00 0.00 90 1016.1
20260831104523 71 270 0.0 0.0 0.00 0.00 0.00 90 1016.2
20260831104018 71 270 0.0 0.0 0.00 0.00 0.00 89 1016.4
20260831103518 71 270 0.0 0.0 0.00 0.00 0.00 89 1016.4
20260831103015 71 270 0.0 0.0 0.00 0.00 0.00 88 1016.4
20260831102508 71 270 0.0 0.0 0.00 0.00 0.00 88 1016.5
20260831102003 71 270 0.0 0.0 0.00 0.00 0.00 87 1016.3
20260831101458 71 254 0.0 0.0 0.00 0.00 0.00 87 1016.3
20260831100954 71 270 0.0 0.0 0.00 0.00 0.00 86 1016.1
20260831100450 71 270 0.0 0.0 0.00 0.00 0.00 86 1016.2
20260831095945 71 270 0.0 0.0 0.00 0.00 0.00 85 1016.5
20260831095444 71 270 0.0 0.0 0.00 0.00 0.00 85 1016.1
20260831094939 71 270 0.0 0.0 0.00 0.00 0.00 85 1016.2
20260831094436 71 270 0.0 0.0 0.00 0.00 0.00 84 1016.4
20260831093931 71 270 0.0 0.0 0.00 0.00 0.00 84 1016.3
20260831093426 71 270 0.0 0.0 0.00 0.00 0.00 83 1016.4
20260831092923 71 270 0.0 0.0 0.00 0.00 0.00 83 1016.3
20260831092418 71 270 0.0 0.0 0.00 0.00 0.00 82 1016.1
20260831091913 71 270 0.0 0.0 0.00 0.00 0.00 82 1016.2
20260831091408 71 270 0.0 0.0 0.00 0.00 0.00 82 1016.2
20260831090903 71 270 0.0 0.0 0.00 0.00 0.00 81 1016.1
20260831090354 71 270 0.0 0.0 0.00 0.00 0.00 81 1016.0
20260831085850 70 270 0.0 0.0 0.00 0.00 0.00 80 1016.1
20260831085344 71 270 0.0 0.0 0.00 0.00 0.00 80 1016.2
20260831084844 70 270 0.0 0.0 0.00 0.00 0.00 80 1016.3
20260831084340 71 270 0.0 0.0 0.00 0.00 0.00 80 1016.1
20260831083837 71 270 0.0 0.0 0.00 0.00 0.00 80 1016.1
20260831083332 71 270 0.0 0.0 0.00 0.00 0.00 80 1016.2
20260831082830 71 270 0.0 0.0 0.00 0.00 0.00 80 1016.3
20260831082325 71 270 0.0 0.0 0.00 0.00 0.00 79 1016.2
20260831081821 71 270 0.0 0.0 0.00 0.00 0.00 79 1016.4
20260831081317 72 270 0.0 0.0 0.00 0.00 0.00 78 1016.2
20260831080812 72 270 0.0 0.0 0.00 0.00 0.00 79 1016.4
20260831080307 72 270 0.0 0.0 0.00 0.00 0.00 78 1016.3
20260831075803 72 270 0.0 0.0 0.00 0.00 0.00 78 1016.5
20260831075258 72 270 0.0 0.0 0.00 0.00 0.00 77 1016.2
20260831074758 73 270 0.0 0.0 0.00 0.00 0.00 77 1016.2
20260831074257 72 270 0.0 0.0 0.00 0.00 0.00 78 1016.5
20260831073754 72 270 0.0 0.0 0.00 0.00 0.00 77 1016.3
20260831073252 72 270 0.0 0.0 0.00 0.00 0.00 77 1016.5
20260831072747 72 270 0.0 0.0 0.00 0.00 0.00 77 1016.1
20260831072244 72 270 0.0 0.0 0.00 0.00 0.00 77 1016.1
20260831071743 72 270 0.0 0.0 0.00 0.00 0.00 76 1016.3
20260831071238 72 270 0.0 0.0 0.00 0.00 0.00 76 1016.2
20260831070733 73 270 0.0 0.0 0.00 0.00 0.00 76 1016.3
20260831070227 73 270 0.0 0.0 0.00 0.00 0.00 75 1016.1
20260831065726 73 270 0.0 1.0 0.00 0.00 0.00 74 1015.9
20260831065224 73 270 0.0 0.0 0.00 0.00 0.00 75 1016.1
20260831064719 73 270 0.0 0.0 0.00 0.00 0.00 74 1015.9
20260831064215 73 270 0.0 0.0 0.00 0.00 0.00 74 1016.1
20260831063711 73 270 0.0 0.0 0.00 0.00 0.00 73 1015.9
20260831063206 73 270 0.0 0.0 0.00 0.00 0.00 74 1016.0
20260831062705 74 331 0.0 1.0 0.00 0.00 0.00 74 1015.9
20260831062205 73 283 0.0 1.0 0.00 0.00 0.00 73 1016.1
20260831061703 74 270 0.0 0.0 0.00 0.00 0.00 72 1015.8
20260831061159 74 270 0.0 0.0 0.00 0.00 0.00 72 1016.2
20260831060655 73 279 0.0 0.0 0.00 0.00 0.00 73 1016.0
20260831060155 74 286 0.0 1.0 0.00 0.00 0.00 72 1015.9
20260831055654 74 291 0.0 1.0 0.00 0.00 0.00 72 1015.9
20260831055149 74 270 0.0 1.0 0.00 0.00 0.00 72 1016.1
20260831054649 74 270 0.0 1.0 0.00 0.00 0.00 72 1016.2